IRIDIUM 33 DEB, 35929

Orbit data source: Space-Track

IRIDIUM 33 DEB, 35929 is space debris in LEO originally from a launch on Sun, 14 Sep 1997 UTC launched from the Tyuratam Missile And Space Complex (TTMTR). The debris from Iridium 33, an American commercial communications satellite, has been tracked extensively since its accidental collision with the defunct Russian satellite Cosmos 2251 in 2009. This event, occurring at high speed in low Earth orbit (LEO), generated thousands of pieces of space debris, significantly increasing the risk of further collisions. The Iridium 33 debris cloud has impacted space traffic management and orbital debris mitigation strategies, making it a subject of ongoing study in space situational awareness.

Loading next visibility...
Identifier
35929, 1997-051UN
Orbit
LEO
Country
Flag of USUS
Related business
Manufacturer
Unknown
Mission
Spacecraft
Bus & Motor
Unknown
Mass
Unknown
Launch date (UTC)
1997-09-14 (28 years ago)
Launch vehicle
Unknown
Launch site
Tyuratam Missile And Space Complex (TTMTR)
Object type
Payload
Rocket body
Debris
Shape & HBR
Unknown shape, 0.1 m
Radar Cross Section
Small (<0.1 m²)

Expand to show TLE details & history
Last TLE update: 1 week ago

TLE from 1 week ago
0 IRIDIUM 33 DEB
1 35929U 97051UN  26029.46270529  .00062382  00000-0  41655-2 0  9998
2 35929  86.3373 289.9396 0010795 203.9600 156.1135 15.06688745884976
Epoch: 2026-01-29T11:06Z
TLE epoch observation values (Epoch: 2026-01-29T11:06:17.737Z)
Latitude
0.00002°
Longitude
-5.34935°
Altitude
556.316 km
Speed
7.58 km/s
True Right ascension
19h 19m 45s
True Declination
0° 00' 00"
Sunlit
Object was in daylight at epoch
Visualization orbit readout
Latitude
Unknown
Longitude
Unknown
Altitude
Unknown
Speed
Unknown
Apparent Right ascension
Unknown
Apparent Declination
Unknown
Sunlit
N/A
Visualization observer readout
Local Sidereal Time
06:36:29
Azimuth
Unknown
Elevation
Unknown
Doppler factor
Unknown
Orbital elements
Apogee altitude
550.662 km
Perigee altitude
535.719 km
Semi-major axis
6,921.328 km
Eccentricity
0.00108
Inclination
86.3373°
RAAN
289.9396°
Arg. of periapsis
203.96°
True anomaly
156.16353°
Mean anomaly
156.1135°
Eccentric anomaly
156.13852°
Mean motion
3.76929 °/min
Orbital period
95.51 mins
BSTAR
0.0041655
Loading maneuver chart data...
Computing Atmospheric mass density...

Documentation

Showing up to 5 results
|